Find WHDW 08-06

NORAD ID: 65169 Int'l Des: 2025-174 Owner: ZXW Country: CN Constellation: xingwang operational
LEOCIRCULARPOLARONEWEB_TYPE

現在のビュー

3D地球を読み込み中...

WHDW 08-06について

説明を読み込み中...

次回通過

Passes for default location (London). Set your location on the main map for personalized predictions.

高度履歴

Loading altitude history...

軌道要素

1 65169U 25174F 26150.17225102 .00000061 00000-0 10837-3 0 9999
2 65169 86.4958 258.1045 0001935 88.9525 271.1831 13.24400604 38401
Epoch: May 30, 2026 • Age: 7 hours

現在のステータス

高度 1172.2 km
速度 7.27 km/s
衛星直下点 37.27°N, 160.95°W
打ち上げ日 Aug 13, 2025
運用期間 0.7 years
タイプ other

技術仕様

分類 Payload
質量 800.00 kg
乾燥質量 800.00 kg
総質量 800.00 kg
長さ 3.00 m
直径 1.00 m
スパン 10.00 m
形状 Box + 2 Pan
製造者 CAST
バスタイプ Xingwang CL
フェーズステータス In Orbit
所有者/国 ZXW/CN

Most Searched